Regional Weather Roundup
Issued by NWS

Home | Current Version | Previous Version | Text Only | Print | Product List | Glossary Off
Versions: 1 2 3 4 5 6 7 8 9 10 11 12 13 14 15 16 17 18 19 20 21 22 23 24 25 26 27 28 29 30 31 32 33 34 35 36 37 38 39 40 41 42 43 44 45 46 47 48 49 50

000
ASUS43 KLMK 141910
RWRKY
KENTUCKY REGIONAL WEATHER ROUNDUP
NATIONAL WEATHER SERVICE LOUISVILLE KY
200 PM EST THU DEC 14 2017

NOTE "FAIR" INDICATES FEW OR NO CLOUDS BELOW 12,000 FEET
WITH NO SIGNIFICANT WEATHER AND/OR OBSTRUCTIONS TO VISIBILITY.

KYZ001>023-026-027-061>063-070>075-142000-
WESTERN AND SOUTH CENTRAL KENTUCKY

CITY           SKY/WX    TMP DP  RH WIND       PRES   REMARKS
PADUCAH        CLOUDY    36  21  54 N8        30.06S WCI  30
HENDERSON      CLOUDY    33  21  61 N5        30.06F WCI  29
OWENSBORO      PTSUNNY  N/A N/A N/A N7        30.06S
HOPKINSVILLE   CLOUDY    35  21  56 W8        30.03S WCI  28
BOWLING GREEN  CLOUDY    37  23  56 W5        30.02F WCI  33
GLASGOW        CLOUDY    38  24  56 W3        30.00S
$$

KYZ024-025-028>034-038-045-046-053-142000-
NORTH CENTRAL KENTUCKY

CITY           SKY/WX    TMP DP  RH WIND       PRES   REMARKS
LOUISVILLE/SDF CLOUDY    34  18  52 NW7       30.03F WCI  28
LOUISVILLE/LOU MOSUNNY   35  18  49 NW8       30.03F WCI  29
FORT KNOX      CLOUDY    35  20  53 NW8       30.00S WCI  29
$$

KYZ035>037-039>044-047>052-055>060-089>105-142000-
NORTHEAST KENTUCKY

CITY           SKY/WX    TMP DP  RH WIND       PRES   REMARKS
LEXINGTON      CLOUDY    36  16  44 VRB3      29.99F
COVINGTON      CLOUDY    27  17  66 N8        30.02F WCI  19
FRANKFORT      SUNNY     36  12  37 VRB3      29.99F
$$

KYZ054-064>069-076>088-106>120-142000-
SOUTHEAST KENTUCKY

CITY           SKY/WX    TMP DP  RH WIND       PRES   REMARKS
JACKSON        CLOUDY    34  21  59 W5        29.96R WCI  30
LONDON         CLOUDY    36  22  56 N8        29.95S WCI  30
SOMERSET       CLOUDY    36  23  60 NE8       29.98F WCI  29
MIDDLESBORO    CLOUDY    40  27  60 N5        29.95R
MONTICELLO     CLOUDY    37  24  59 N12       29.99S WCI  29
$$





USA.gov is the U.S. government's official web portal to all federal, state and local government web resources and services.